[[{"header":{"parameterUnit":"m.s-1","parameterCategory":1,"la1":30.2991,"la2":30.254,"lo1":-89.0895,"lo2":-89.0444,"dy":0.0017,"dx":0.0017,"nx":28,"ny":28,"refTime":"2025-05-15T09:00:00:Z","depth":0,"parameterNumber":2,"parameterNumberName":"U-component_of_WINDS"},"data":[0,0,0,0,0,0,0,0,0,0,0,0,0,0,0,0,0,0,0,0,0,0,0,0,0,0,0,0,0,0,0,0,0,0,0,0,0,0,0,0,0,0,0,0,0,0,0,0,0,0,0,0,0,0,0,0,0,0,0.5281,0.5282,0,0.5352,0.5353,0.5354,0.5365,0.5364,0.5364,0.5363,0.5437,0.5439,0.5442,0,0,0,0,0,0,0,0,0,0,0,0,0,0.5155,0.5158,0.5281,0.5282,0.5283,0.5352,0.5353,0.5354,0.5365,0.5364,0.5363,0.5363,0.5436,0.5439,0.5442,0,0,0,0,0,0,0,0,0,0,0,0,0,0.5217,0.5158,0.5281,0.5297,0.5299,0.5352,0.5353,0.5354,0.5365,0.5364,0.5363,0.5362,0.5435,0.5439,0.5443,0.5485,0,0,0.5454,0.5456,0,0,0,0,0,0,0,0,0.5213,0.5221,0.5293,0.5296,0.5298,0.5349,0.5336,0.5398,0.5365,0.534,0.5363,0.5362,0.5408,0.5414,0.543,0.5489,0.5492,0.5455,0.5457,0.5459,0.546,0,0,0,0,0,0,0,0.5209,0.5218,0.5309,0.5294,0.5297,0.53,0.5308,0.5348,0.5379,0.5342,0.5343,0.5351,0.5409,0.5426,0.5432,0.5493,0.5455,0.5458,0.546,0.5462,0.5591,0.5592,0,0,0,0,0,0,0.5202,0.5215,0.5307,0.5311,0.5252,0.5303,0.5312,0.5333,0.5378,0.5384,0.5352,0.5352,0.542,0.5427,0.5434,0.5488,0.5459,0.5462,0.5464,0.5589,0.5591,0.5592,0,0,0,0,0,0,0.5199,0.521,0.5304,0.5263,0.5275,0.5307,0.5331,0.5335,0.5352,0.5386,0.5391,0.5363,0.542,0.5429,0.5472,0.549,0.5464,0.5467,0.5588,0.559,0.5591,0.5594,0,0,0,0,0,0,0.5195,0.5209,0.5225,0.5263,0.5278,0.5341,0.5332,0.5337,0.5358,0.5358,0.5398,0.5403,0.5419,0.5467,0.5476,0.5495,0.547,0.5587,0.5589,0.5591,0.5592,0.5595,0.5598,0,0,0,0,0,0.5191,0.5223,0.5226,0.5237,0.5299,0.5342,0.535,0.5367,0.536,0.5377,0.5398,0.5402,0.5486,0.5471,0.5482,0.5502,0.5586,0.5588,0.5591,0.5591,0.5595,0.5598,0,0,0,0,0,0,0.5186,0.5228,0.5232,0.5278,0.5306,0.5343,0.5365,0.5371,0.5402,0.5401,0.5422,0.543,0.5473,0.5492,0.5474,0.5546,0.5536,0.554,0.5532,0.5536,0.5539,0.5534,0.5474,0,0,0,0,0,0.519,0.5222,0.5257,0.5294,0.5308,0.5334,0.5353,0.5364,0.5395,0.5407,0.5432,0.5462,0.5495,0.5516,0.5549,0.5595,0.5604,0.5614,0.5617,0.5619,0.5623,0.565,0.5655,0.56,0.56,0.56,0,0,0.52,0.5226,0.5245,0.5293,0.5317,0.5349,0.5344,0.5378,0.5403,0.5412,0.5455,0.5474,0.5509,0.5554,0.5575,0.5571,0.564,0.5622,0.5624,0.5627,0.5653,0.5658,0.5662,0.5602,0.5602,0.5601,0,0,0.5233,0.5256,0.529,0.5313,0.5348,0.5365,0.5373,0.541,0.5423,0.5466,0.5475,0.5504,0.556,0.5585,0.5605,0.5647,0.5652,0.5657,0.5672,0.5697,0.5702,0.5706,0.5721,0.5727,0.5661,0.5661,0.5661,0,0.524,0.5289,0.5306,0.534,0.5362,0.5371,0.5406,0.5428,0.5472,0.5486,0.5481,0.5552,0.5576,0.5627,0.5638,0.5653,0.5663,0.5653,0.57,0.5704,0.5708,0.5723,0.5729,0.5661,0.5661,0.5661,0.5661,0,0.5296,0.533,0.5352,0.5395,0.5418,0.5452,0.5475,0.5497,0.5506,0.5524,0.5568,0.5597,0.5635,0.5648,0.5657,0.5701,0.5697,0.5695,0.5686,0.5713,0.5728,0.5734,0.5662,0.5662,0.5661,0.5661,0,0,0.5329,0.538,0.5388,0.5408,0.5447,0.5474,0.5508,0.5546,0.5564,0.5594,0.5624,0.5672,0.567,0.5693,0.5705,0.5727,0.5759,0.5722,0.5724,0.5729,0.581,0.5811,0.5818,0.5762,0.5763,0.5764,0.5807,0,0.5367,0.5429,0.5446,0.5498,0.553,0.5539,0.557,0.5597,0.5615,0.5644,0.5664,0.5697,0.5693,0.5706,0.5729,0.575,0.5776,0.5748,0.5791,0.5792,0.5783,0.5825,0.5827,0.5866,0.5813,0.5814,0.5814,0,0.5421,0.5451,0.5507,0.5543,0.5557,0.5583,0.5619,0.5647,0.5679,0.569,0.5715,0.5725,0.5761,0.5749,0.58,0.578,0.5799,0.5812,0.5814,0.582,0.5805,0.5832,0.5878,0.5884,0.5824,0.5823,0.5822,0,0.544,0.5495,0.5536,0.5552,0.5594,0.5613,0.5632,0.5662,0.5684,0.5715,0.5729,0.5765,0.5784,0.5811,0.583,0.5819,0.588,0.5869,0.5891,0.5891,0.5904,0.5903,0.5954,0.5915,0.5915,0.5914,0.5914,0,0.5481,0.5515,0.5545,0.557,0.5608,0.5627,0.5664,0.5683,0.5711,0.574,0.575,0.5777,0.5801,0.5831,0.5846,0.5886,0.5895,0.5906,0.5909,0.5905,0.5904,0.5918,0.5916,0.5916,0.5916,0.5915,0.5915,0,0.5509,0.5531,0.5576,0.5612,0.5622,0.5649,0.568,0.5705,0.5723,0.5759,0.5769,0.5797,0.5833,0.5855,0.5901,0.5911,0.5956,0.5958,0.5945,0.5947,0.5968,0.5966,0.6031,0.604,0.5994,0.5994,0.5994,0,0.5535,0.5561,0.56,0.5621,0.5639,0.5672,0.5694,0.5713,0.5736,0.5774,0.5794,0.5831,0.5862,0.5919,0.5944,0.5979,0.5983,0.6003,0.5988,0.5983,0.5984,0.5982,0.5985,0.6006,0.6006,0.6006,0.6007,0,0.5578,0.5587,0.5619,0.5654,0.568,0.5708,0.5736,0.5752,0.5777,0.5802,0.5839,0.5862,0.5909,0.5946,0.5983,0.6003,0.6009,0.6011,0.6018,0.6014,0.6006,0.6011,0.5953,0.601,0.6009,0.6009,0.6009,0.6009,0.5606,0.563,0.5662,0.5696,0.5719,0.5746,0.5771,0.5792,0.5823,0.5863,0.5872,0.5911,0.5942,0.5993,0.6013,0.6045,0.6041,0.6051,0.6054,0.6056,0.6057,0.6,0.6051,0.6051,0.6051,0.6051,0.6051,0,0.565,0.5671,0.5703,0.5742,0.5769,0.5772,0.5804,0.5827,0.5861,0.5889,0.5919,0.5962,0.5997,0.6025,0.6061,0.6081,0.6085,0.609,0.6089,0.6094,0.6058,0.6048,0.6086,0.6086,0.6086,0.6086,0.6086,0.6086,0.5677,0.5717,0.573,0.5783,0.5803,0.5842,0.586,0.5884,0.5907,0.5954,0.5984,0.6001,0.6029,0.6068,0.6101,0.6108,0.6121,0.6126,0.6134,0.61,0.6096,0.6092,0.6084,0.6129,0.6129,0.6167,0.6167,0.6168]},{"header":{"parameterUnit":"m.s-1","parameterCategory":1,"la1":30.2991,"la2":30.254,"lo1":-89.0895,"lo2":-89.0444,"dy":0.0017,"dx":0.0017,"nx":28,"ny":28,"refTime":"2025-05-15T09:00:00:Z","depth":0,"parameterNumber":3,"parameterNumberName":"V-component_of_WINDS"},"data":[0,0,0,0,0,0,0,0,0,0,0,0,0,0,0,0,0,0,0,0,0,0,0,0,0,0,0,0,0,0,0,0,0,0,0,0,0,0,0,0,0,0,0,0,0,0,0,0,0,0,0,0,0,0,0,0,0,0,4.6702,4.6702,0,4.6702,4.6702,4.6702,4.6664,4.6663,4.6662,4.6661,4.6659,4.666,4.6661,0,0,0,0,0,0,0,0,0,0,0,0,0,4.6667,4.6668,4.6702,4.6702,4.6702,4.6702,4.6702,4.6702,4.6664,4.6663,4.6662,4.6661,4.6659,4.666,4.6661,0,0,0,0,0,0,0,0,0,0,0,0,0,4.6676,4.6668,4.6702,4.6683,4.6681,4.6702,4.6702,4.6702,4.6665,4.6663,4.6662,4.666,4.6659,4.666,4.6661,4.6699,0,0,4.6665,4.6666,0,0,0,0,0,0,0,0,4.6676,4.6678,4.6686,4.6684,4.6683,4.6682,4.6689,4.6701,4.6665,4.6671,4.6661,4.6659,4.6668,4.6668,4.6671,4.6699,4.6699,4.6665,4.6666,4.6667,4.6667,0,0,0,0,0,0,0,4.6675,4.6677,4.6702,4.6686,4.6684,4.6674,4.6674,4.6691,4.6678,4.667,4.6668,4.6668,4.6666,4.667,4.6671,4.6699,4.6665,4.6666,4.6667,4.6668,4.676,4.6761,0,0,0,0,0,0,4.6678,4.6677,4.6702,4.6702,4.6676,4.6676,4.6676,4.6683,4.6677,4.6675,4.667,4.6666,4.6669,4.667,4.6671,4.6717,4.6667,4.6668,4.6669,4.6758,4.676,4.6762,0,0,0,0,0,0,4.6677,4.668,4.6702,4.6689,4.6691,4.6678,4.6687,4.6684,4.6688,4.6677,4.6674,4.6676,4.6668,4.6669,4.6693,4.6716,4.6668,4.667,4.6756,4.6759,4.6761,4.6807,0,0,0,0,0,0,4.6676,4.668,4.6695,4.669,4.6692,4.6725,4.6689,4.6685,4.6691,4.6687,4.6682,4.668,4.6667,4.6691,4.6694,4.6717,4.6671,4.6754,4.6757,4.676,4.6804,4.6811,4.6817,0,0,0,0,0,4.6675,4.6706,4.6695,4.6699,4.671,4.6726,4.6727,4.6712,4.6693,4.6707,4.67,4.668,4.6713,4.6694,4.6697,4.672,4.6753,4.6756,4.676,4.6801,4.681,4.6817,0,0,0,0,0,0,4.6713,4.6705,4.6693,4.6724,4.6726,4.6719,4.6737,4.6721,4.6728,4.6724,4.6704,4.6703,4.6731,4.6728,4.6707,4.6758,4.6729,4.6734,4.6759,4.6768,4.6774,4.6775,4.6672,0,0,0,0,0,4.6725,4.6739,4.6732,4.676,4.6762,4.6749,4.6756,4.6744,4.6745,4.6745,4.674,4.6741,4.6752,4.6759,4.6768,4.6803,4.6802,4.6821,4.6828,4.6833,4.6837,4.6857,4.6866,4.6774,4.6774,4.6774,0,0,4.6749,4.6747,4.6757,4.6767,4.6767,4.6783,4.675,4.6767,4.6779,4.6748,4.6771,4.6767,4.6767,4.6797,4.681,4.6795,4.6863,4.6838,4.6843,4.6844,4.6862,4.6871,4.6878,4.6777,4.6776,4.6776,0,0,4.6803,4.6802,4.6826,4.6828,4.683,4.6822,4.6828,4.6824,4.6821,4.6844,4.6822,4.6835,4.6853,4.6855,4.6858,4.6915,4.6897,4.6918,4.6954,4.6974,4.6981,4.6987,4.7009,4.7017,4.6923,4.6923,4.6923,0,4.6833,4.6856,4.684,4.686,4.6866,4.684,4.6865,4.6867,4.6871,4.6875,4.6859,4.6884,4.6881,4.6913,4.6927,4.693,4.6936,4.6919,4.6981,4.6988,4.6993,4.7014,4.7022,4.6925,4.6925,4.6925,4.6925,0,4.6894,4.691,4.693,4.6936,4.6944,4.6966,4.6954,4.6963,4.6952,4.6946,4.697,4.6968,4.6977,4.6983,4.6971,4.7013,4.7004,4.6985,4.6956,4.7005,4.7024,4.7031,4.6929,4.6928,4.6928,4.6927,0,0,4.6969,4.6969,4.6977,4.6981,4.6982,4.6994,4.7015,4.7025,4.7035,4.7039,4.7057,4.7074,4.7057,4.7061,4.7049,4.7066,4.7113,4.7045,4.7045,4.7059,4.7161,4.7176,4.7185,4.7101,4.7103,4.7104,4.7162,0,4.7022,4.7059,4.7047,4.7085,4.7101,4.7078,4.7097,4.71,4.7095,4.7108,4.7102,4.7115,4.7091,4.7094,4.711,4.7104,4.7134,4.71,4.7118,4.7119,4.712,4.7195,4.721,4.7265,4.7169,4.717,4.7171,0,4.7088,4.7097,4.7137,4.7138,4.7144,4.7162,4.7171,4.7183,4.7187,4.7182,4.7188,4.7173,4.7194,4.7165,4.7194,4.7172,4.7178,4.7177,4.7179,4.718,4.7148,4.72,4.7282,4.7291,4.7182,4.7181,4.718,0,4.7141,4.7163,4.7191,4.7194,4.7195,4.7209,4.7209,4.7211,4.7219,4.7227,4.7232,4.7242,4.7248,4.7256,4.7244,4.7224,4.7276,4.7245,4.7273,4.7273,4.7285,4.7284,4.737,4.7288,4.7288,4.7288,4.7288,0,4.7201,4.7227,4.7215,4.7232,4.726,4.7247,4.7275,4.7273,4.7275,4.7292,4.7272,4.7287,4.727,4.7284,4.7275,4.7302,4.7304,4.7301,4.7299,4.7304,4.7304,4.7308,4.7304,4.729,4.7289,4.7289,4.7289,0,4.7265,4.7258,4.7286,4.7286,4.7287,4.7308,4.7308,4.7324,4.7318,4.7339,4.7343,4.7335,4.7351,4.734,4.7355,4.7349,4.7384,4.7376,4.7384,4.7382,4.7411,4.7408,4.7503,4.7515,4.7424,4.7425,4.7425,0,4.7304,4.7324,4.7327,4.7338,4.7341,4.7357,4.7366,4.7353,4.7363,4.7369,4.7384,4.7399,4.741,4.7436,4.7431,4.7443,4.7435,4.7467,4.7436,4.7441,4.7437,4.7436,4.7439,4.7473,4.7474,4.7475,4.7476,0,4.7375,4.7372,4.7386,4.7399,4.7411,4.742,4.7428,4.7437,4.7425,4.7437,4.7454,4.7463,4.748,4.7494,4.7505,4.7505,4.7489,4.7486,4.7493,4.7499,4.7503,4.7503,4.7402,4.7484,4.7483,4.7482,4.7482,4.7482,4.7429,4.7446,4.7452,4.7469,4.7474,4.7483,4.7498,4.7496,4.7511,4.7525,4.7516,4.7536,4.754,4.7553,4.7555,4.7571,4.7558,4.7568,4.757,4.7573,4.7578,4.7501,4.7573,4.7572,4.7572,4.7572,4.7572,0,4.75,4.7504,4.7519,4.7533,4.7546,4.7532,4.754,4.7552,4.7571,4.7577,4.7589,4.7609,4.7624,4.7621,4.7634,4.7647,4.7641,4.7651,4.7651,4.7651,4.7589,4.7582,4.7657,4.7657,4.7657,4.7657,4.7657,4.7657,4.7539,4.7569,4.7566,4.7599,4.7601,4.7623,4.7629,4.7637,4.7642,4.7666,4.7679,4.7678,4.768,4.7694,4.7707,4.7706,4.7712,4.7726,4.7722,4.7664,4.7655,4.7647,4.7641,4.7727,4.7728,4.7784,4.7784,4.7785]}]]